{"data":{"norad_id":69677,"epoch":"2026-09-19T19:31:08.594688Z","epoch_age_seconds":80992,"freshness":"FRESH","line1":"1 69677U 26145A   26262.81329392  .00023747  00000+0  73535-3 0  9996","line2":"2 69677  97.2885 109.4240 0002047  79.5952 280.5521 15.33454482 13439","mean_motion":15.33454482,"eccentricity":0.0002047,"inclination_deg":97.2885,"raan_deg":109.424,"arg_perigee_deg":79.5952,"mean_anomaly_deg":280.5521,"bstar":0.00073535,"rev_number":1343,"period_min":93.905623994909,"perigee_km":464.11406730586,"apogee_km":466.91585841946,"semimajor_km":6843.6519628627,"source":"CELESTRAK","updated_at":"2026-09-20T09:00:44.251879Z"}}